Location: Boussac
(44.2782°N, 2.3665°E)
Time: 05:05:49
(UTC+00:00)

SL-08 R/B - Pass Details

Date: 15 May 2026
Orbit: 666 x 729 km, 98.5° (Epoch: 6 June)

Event Time Altitude Azimuth Distance (km) Brightness Sun altitude
Rises 19:42:43 0° 22° (NNE) 3,123 6.8 -5.7°
Reaches altitude 10° 19:45:12 10° 32° (NNE) 2,188 5.9 -6.1°
Maximum altitude 19:49:33 34° 97° (E) 1,148 4.0 -6.8°
Drops below altitude 10° 19:53:48 10° 162° (SSE) 2,136 5.3 -7.4°
Sets 19:56:11 0° 172° (S) 3,037 6.2 -7.7°
